Moab, UT

7:42 AM MST on January 22, 2018 (GMT -0700)
Canyonlands

Weather History for KCNY - September, 2012

Change the Weather History Date:

Saturday, September 1, 2012

  Actual Average Record
Temperature  
Mean Temperature 78 °F 72 °F  
Max Temperature 94 °F 88 °F 102 °F (1950)
Min Temperature 61 °F 57 °F 40 °F (1932)
Degree Days  
Heating Degree Days 0 0  
Month to date heating degree days 0 0  
Since 1 July heating degree days 0 1  
Cooling Degree Days 13 8  
Month to date cooling degree days 13 8  
Year to date cooling degree days 1406 1174  
Growing Degree Days 28 (Base 50)    
Moisture  
Dew Point 49 °F    
Average Humidity 45    
Maximum Humidity 72    
Minimum Humidity 18    
Precipitation  
Precipitation 0.00 in 0.03 in 0.37 in (1966)
Month to date precipitation 0.00 0.03  
Year to date precipitation 1.84 5.41  
Sea Level Pressure  
Sea Level Pressure 29.89 in    
Wind  
Wind Speed 9 mph (SSW)    
Max Wind Speed 31 mph    
Max Gust Speed 38 mph    
Visibility 10 miles    
Events Thunderstorm    
T = Trace of Precipitation, MM = Missing Value Source: NWS Daily Summary

Daily Weather History Graph

Daily Weather History Graph

Search for Another Location

Airport or City:

Trip Planner

Search our weather history database for the weather conditions in past years. The results will help you decide how hot, cold, wet, or windy it might be!

Date:

Astronomy

Sep. 01, 2012 Rise Set
Actual Time 6:48 AM MDT 7:48 PM MDT
Civil Twilight 6:21 AM MDT 8:15 PM MDT
Nautical Twilight 5:48 AM MDT 8:47 PM MDT
Astronomical Twilight 5:15 AM MDT 9:21 PM MDT
Moon 8:08 PM MDT (9/1) 7:58 AM MDT (9/1)
Length of Visible Light 13h 54m
Length of Day
12h 59m
Full, 98% of the Moon is Illuminated
Sep 1
Full
Sep 8
Last Quarter
Sep 15
New
Sep 22
First Quarter
Sep 29
Full

Hourly Weather History & Observations

Time (MDT) Temp. Dew Point Humidity Pressure Visibility Wind Dir Wind Speed Gust Speed Precip Events Conditions
12:53 AM 72.0 °F 52.0 °F 49% 29.87 in 10.0 mi Calm Calm - N/A   Clear
1:53 AM 68.0 °F 52.0 °F 56% 29.87 in 10.0 mi Calm Calm - N/A   Clear
2:53 AM 66.0 °F 52.0 °F 60% 29.86 in 10.0 mi West 4.6 mph - N/A   Clear
3:53 AM 64.0 °F 53.1 °F 67% 29.87 in 10.0 mi Calm Calm - N/A   Clear
4:53 AM 63.0 °F 53.1 °F 70% 29.88 in 10.0 mi Calm Calm - N/A   Clear
5:53 AM 63.0 °F 51.1 °F 65% 29.91 in 10.0 mi WSW 3.5 mph - N/A   Partly Cloudy
6:53 AM 62.1 °F 50.0 °F 65% 29.93 in 10.0 mi Calm Calm - N/A   Clear
7:53 AM 66.0 °F 53.1 °F 63% 29.94 in 10.0 mi Calm Calm - N/A   Clear
8:53 AM 72.0 °F 54.0 °F 53% 29.95 in 10.0 mi SSE 3.5 mph - N/A   Clear
9:53 AM 78.1 °F 51.1 °F 39% 29.94 in 10.0 mi Variable 3.5 mph - N/A   Clear
10:53 AM 82.0 °F 50.0 °F 33% 29.93 in 10.0 mi Calm Calm - N/A   Clear
11:53 AM 84.9 °F 50.0 °F 30% 29.92 in 10.0 mi Variable 6.9 mph - N/A   Partly Cloudy
12:53 PM 89.1 °F 45.0 °F 22% 29.88 in 10.0 mi SW 15.0 mph 24.2 mph N/A   Partly Cloudy
1:53 PM 90.0 °F 45.0 °F 21% 29.86 in 10.0 mi SSW 8.1 mph 19.6 mph N/A   Partly Cloudy
2:53 PM 91.9 °F 43.0 °F 18% 29.83 in 10.0 mi Variable 4.6 mph 18.4 mph N/A   Partly Cloudy
3:53 PM 91.4 °F 44.6 °F 20% 29.98 in 10.0 mi SSW 13.8 mph 28.8 mph N/A   Clear
4:53 PM 93.0 °F 44.1 °F 18% 29.78 in 10.0 mi SSW 13.8 mph 27.6 mph N/A   Mostly Cloudy
5:53 PM 91.9 °F 43.0 °F 18% 29.78 in 10.0 mi SW 19.6 mph 26.5 mph N/A   Clear
6:53 PM 90.0 °F 44.1 °F 20% 29.79 in 10.0 mi SW 19.6 mph - N/A   Clear
7:53 PM 84.9 °F 46.9 °F 27% 29.81 in 10.0 mi SSW 24.2 mph 33.4 mph N/A   Scattered Clouds
8:30 PM 82.4 °F 48.2 °F 30% 30.00 in 10.0 mi South 29.9 mph 38.0 mph N/A Thunderstorm Clear
8:50 PM 80.6 °F 50.0 °F 34% 30.02 in 10.0 mi South 25.3 mph 33.4 mph N/A   Clear
8:53 PM 81.0 °F 50.0 °F 34% 29.84 in 10.0 mi South 23.0 mph 33.4 mph N/A   Clear
9:53 PM 75.9 °F 51.1 °F 42% 29.89 in 10.0 mi SSE 23.0 mph 31.1 mph N/A   Partly Cloudy
10:53 PM 73.9 °F 53.1 °F 48% 29.93 in 10.0 mi East 12.7 mph 21.9 mph N/A   Clear
11:53 PM 75.0 °F 50.0 °F 41% 29.92 in 10.0 mi ESE 12.7 mph - N/A   Mostly Cloudy